| time (UTC) | temp F | wind direction | speed MPH | gust MPH | rain 1hr in | rain 24hr in | rain mn in | humidity % | barometer mb |
| 20260508215808 | 78 | 202 | 9.0 | 13.0 | 0.00 | 0.74 | 0.74 | 67 | 1006.7 |
| 20260508214308 | 77 | 163 | 10.0 | 16.0 | 0.00 | 0.74 | 0.74 | 66 | 1006.6 |
| 20260508212307 | 77 | 151 | 7.0 | 13.0 | 0.00 | 0.74 | 0.74 | 66 | 1006.7 |
| 20260508204808 | 76 | 207 | 8.0 | 14.0 | 0.00 | 0.74 | 0.74 | 67 | 1008.0 |
| 20260508201808 | 77 | 176 | 5.0 | 12.0 | 0.00 | 0.74 | 0.74 | 66 | 1008.6 |
| 20260508201307 | 77 | 167 | 6.0 | 13.0 | 0.00 | 0.74 | 0.74 | 66 | 1008.6 |
| 20260508200807 | 77 | 149 | 6.0 | 13.0 | 0.00 | 0.74 | 0.74 | 65 | 1008.6 |
| 20260508195307 | 78 | 164 | 7.0 | 13.0 | 0.00 | 0.74 | 0.74 | 64 | 1008.5 |
| 20260508194807 | 78 | 156 | 5.0 | 12.0 | 0.00 | 0.74 | 0.74 | 63 | 1008.6 |
| 20260508194307 | 78 | 167 | 7.0 | 13.0 | 0.00 | 0.74 | 0.74 | 64 | 1008.6 |
| 20260508193807 | 79 | 149 | 6.0 | 12.0 | 0.00 | 0.74 | 0.74 | 63 | 1008.6 |
| 20260508192807 | 79 | 198 | 7.0 | 15.0 | 0.00 | 0.74 | 0.74 | 61 | 1008.9 |
| 20260508184807 | 79 | 147 | 6.0 | 12.0 | 0.00 | 0.74 | 0.74 | 61 | 1009.0 |
| 20260508182807 | 78 | 150 | 4.0 | 12.0 | 0.00 | 0.74 | 0.74 | 60 | 1009.4 |
| 20260508180307 | 77 | 162 | 7.0 | 12.0 | 0.00 | 0.74 | 0.74 | 63 | 1009.9 |
| 20260508174806 | 76 | 107 | 4.0 | 12.0 | 0.00 | 0.74 | 0.74 | 62 | 1009.9 |
| 20260508173807 | 75 | 157 | 4.0 | 8.0 | 0.00 | 0.74 | 0.74 | 64 | 1010.0 |
| 20260508172307 | 74 | 170 | 5.0 | 9.0 | 0.00 | 0.74 | 0.74 | 67 | 1010.4 |
| 20260508171807 | 74 | 197 | 3.0 | 9.0 | 0.00 | 0.74 | 0.74 | 66 | 1010.6 |
| 20260508170307 | 73 | 153 | 5.0 | 10.0 | 0.00 | 0.74 | 0.74 | 67 | 1011.0 |
| 20260508163807 | 71 | 189 | 8.0 | 13.0 | 0.00 | 0.74 | 0.74 | 67 | 1011.6 |
| 20260508162807 | 71 | 166 | 7.0 | 12.0 | 0.00 | 0.74 | 0.74 | 69 | 1011.6 |
| 20260508162307 | 70 | 170 | 6.0 | 10.0 | 0.00 | 0.74 | 0.74 | 71 | 1011.9 |
| 20260508161806 | 69 | 167 | 6.0 | 9.0 | 0.00 | 0.74 | 0.74 | 74 | 1011.9 |
| 20260508160807 | 68 | 162 | 6.0 | 12.0 | 0.00 | 0.74 | 0.74 | 74 | 1011.9 |
| 20260508160306 | 67 | 172 | 6.0 | 14.0 | 0.00 | 0.74 | 0.74 | 74 | 1012.4 |
| 20260508155806 | 68 | 177 | 7.0 | 12.0 | 0.00 | 0.74 | 0.74 | 74 | 1012.4 |
| 20260508153306 | 66 | 159 | 5.0 | 10.0 | 0.00 | 0.74 | 0.74 | 81 | 1012.1 |
| 20260508151807 | 65 | 161 | 5.0 | 8.0 | 0.00 | 0.74 | 0.74 | 90 | 1012.1 |
| 20260508151306 | 64 | 183 | 6.0 | 10.0 | 0.00 | 0.74 | 0.74 | 92 | 1012.3 |
| 20260508150806 | 63 | 165 | 5.0 | 9.0 | 0.00 | 0.74 | 0.74 | 93 | 1012.3 |
| 20260508150306 | 62 | 155 | 4.0 | 9.0 | 0.00 | 0.74 | 0.74 | 94 | 1012.4 |
| 20260508145807 | 62 | 160 | 3.0 | 6.0 | 0.00 | 0.74 | 0.74 | 95 | 1012.4 |
| 20260508145307 | 62 | 189 | 5.0 | 8.0 | 0.00 | 0.74 | 0.74 | 95 | 1012.4 |
| 20260508143306 | 62 | 138 | 0.0 | 5.0 | 0.00 | 0.74 | 0.74 | 95 | 1012.5 |
| 20260508141307 | 61 | 136 | 3.0 | 5.0 | 0.00 | 0.74 | 0.74 | 96 | 1012.6 |
| 20260508133806 | 60 | 144 | 2.0 | 3.0 | 0.05 | 0.74 | 0.74 | 96 | 1012.6 |
| 20260508132807 | 60 | 144 | 2.0 | 5.0 | 0.05 | 0.74 | 0.74 | 95 | 1012.7 |
| 20260508132307 | 60 | 142 | 4.0 | 7.0 | 0.05 | 0.74 | 0.74 | 96 | 1012.5 |
| 20260508131807 | 60 | 147 | 3.0 | 6.0 | 0.05 | 0.74 | 0.74 | 96 | 1012.5 |
| 20260508130306 | 60 | 139 | 5.0 | 10.0 | 0.04 | 0.73 | 0.73 | 95 | 1012.5 |
| 20260508124806 | 60 | 119 | 0.0 | 3.0 | 0.01 | 0.70 | 0.70 | 95 | 1013.1 |
| 20260508124306 | 60 | 132 | 2.0 | 5.0 | 0.00 | 0.69 | 0.69 | 96 | 1013.1 |
| 20260508123806 | 59 | 183 | 0.0 | 2.0 | 0.00 | 0.69 | 0.69 | 95 | 1013.1 |
| 20260508123306 | 59 | 183 | 1.0 | 5.0 | 0.00 | 0.69 | 0.69 | 95 | 1013.1 |
| 20260508120805 | 60 | 144 | 1.0 | 3.0 | 0.08 | 0.69 | 0.69 | 95 | 1013.0 |
| 20260508120306 | 60 | 144 | 0.0 | 3.0 | 0.16 | 0.69 | 0.69 | 95 | 1012.8 |
| 20260508115806 | 60 | 144 | 2.0 | 6.0 | 0.19 | 0.69 | 0.69 | 95 | 1012.6 |
| 20260508114806 | 60 | 158 | 5.0 | 6.0 | 0.36 | 0.69 | 0.69 | 95 | 1012.7 |
| 20260508114305 | 59 | 142 | 2.0 | 5.0 | 0.42 | 0.69 | 0.69 | 95 | 1012.6 |
| 20260508113306 | 59 | 138 | 3.0 | 7.0 | 0.43 | 0.69 | 0.69 | 95 | 1012.6 |
| 20260508111306 | 59 | 156 | 8.0 | 12.0 | 0.48 | 0.67 | 0.67 | 94 | 1012.1 |
| 20260508110806 | 60 | 151 | 6.0 | 12.0 | 0.42 | 0.61 | 0.61 | 94 | 1012.3 |
| 20260508110305 | 60 | 144 | 5.0 | 9.0 | 0.34 | 0.53 | 0.53 | 94 | 1013.0 |
| 20260508105805 | 60 | 210 | 1.0 | 3.0 | 0.31 | 0.50 | 0.50 | 93 | 1013.0 |
| 20260508105306 | 60 | 217 | 1.0 | 2.0 | 0.26 | 0.45 | 0.45 | 93 | 1013.2 |
| 20260508104805 | 60 | 215 | 2.0 | 3.0 | 0.14 | 0.33 | 0.33 | 93 | 1012.6 |
| 20260508103806 | 60 | 202 | 0.0 | 3.0 | 0.07 | 0.26 | 0.26 | 93 | 1012.7 |
| 20260508103306 | 60 | 239 | 1.0 | 6.0 | 0.07 | 0.26 | 0.26 | 93 | 1013.3 |
| 20260508102805 | 60 | 273 | 2.0 | 5.0 | 0.07 | 0.26 | 0.26 | 93 | 1012.3 |
| 20260508101806 | 60 | 263 | 1.0 | 3.0 | 0.02 | 0.21 | 0.21 | 93 | 1012.5 |
| 20260508100806 | 60 | 158 | 2.0 | 3.0 | 0.00 | 0.19 | 0.19 | 93 | 1011.6 |
| 20260508095806 | 60 | 157 | 1.0 | 3.0 | 0.01 | 0.19 | 0.19 | 93 | 1011.5 |
| 20260508095307 | 60 | 157 | 3.0 | 5.0 | 0.01 | 0.19 | 0.19 | 92 | 1011.5 |
| 20260508094305 | 60 | 151 | 3.0 | 5.0 | 0.01 | 0.19 | 0.19 | 92 | 1011.7 |
| 20260508093805 | 60 | 157 | 2.0 | 5.0 | 0.01 | 0.19 | 0.19 | 92 | 1011.9 |
| 20260508093305 | 60 | 165 | 2.0 | 3.0 | 0.01 | 0.19 | 0.19 | 92 | 1011.7 |
| 20260508092805 | 60 | 166 | 1.0 | 6.0 | 0.01 | 0.19 | 0.19 | 92 | 1011.9 |
| 20260508091306 | 60 | 182 | 3.0 | 6.0 | 0.02 | 0.19 | 0.19 | 91 | 1011.8 |
| 20260508090805 | 60 | 147 | 6.0 | 9.0 | 0.02 | 0.19 | 0.19 | 91 | 1011.8 |
| 20260508090305 | 60 | 154 | 5.0 | 7.0 | 0.01 | 0.18 | 0.18 | 91 | 1011.9 |
| 20260508085307 | 60 | 199 | 2.0 | 3.0 | 0.08 | 0.18 | 0.18 | 91 | 1012.5 |
| 20260508084306 | 60 | 218 | 2.0 | 3.0 | 0.18 | 0.18 | 0.18 | 90 | 1012.5 |
| 20260508083305 | 60 | 263 | 1.0 | 7.0 | 0.18 | 0.18 | 0.18 | 90 | 1012.5 |
| 20260508082806 | 60 | 157 | 6.0 | 12.0 | 0.18 | 0.18 | 0.18 | 90 | 1012.7 |
| 20260508082306 | 60 | 144 | 6.0 | 12.0 | 0.18 | 0.18 | 0.18 | 89 | 1012.7 |
| 20260508081806 | 60 | 133 | 6.0 | 9.0 | 0.17 | 0.17 | 0.17 | 88 | 1012.7 |
| 20260508080805 | 60 | 150 | 6.0 | 9.0 | 0.17 | 0.17 | 0.17 | 87 | 1013.3 |
| 20260508074305 | 62 | 139 | 1.0 | 2.0 | 0.00 | 0.00 | 0.00 | 80 | 1013.9 |
| 20260508073305 | 62 | 140 | 2.0 | 5.0 | 0.00 | 0.00 | 0.00 | 79 | 1013.3 |
| 20260508072806 | 62 | 139 | 2.0 | 3.0 | 0.00 | 0.00 | 0.00 | 79 | 1013.3 |
| 20260508071306 | 62 | 142 | 2.0 | 7.0 | 0.00 | 0.00 | 0.00 | 80 | 1013.4 |
| 20260508070305 | 62 | 142 | 0.0 | 1.0 | 0.00 | 0.00 | 0.00 | 79 | 1013.3 |
| 20260508065307 | 62 | 142 | 1.0 | 2.0 | 0.00 | 0.00 | 0.00 | 79 | 1013.5 |
| 20260508063805 | 62 | 143 | 0.0 | 0.0 | 0.00 | 0.00 | 0.00 | 78 | 1013.9 |
| 20260508063305 | 62 | 143 | 0.0 | 1.0 | 0.00 | 0.00 | 0.00 | 78 | 1014.1 |
| 20260508062805 | 62 | 142 | 0.0 | 2.0 | 0.00 | 0.00 | 0.00 | 78 | 1014.1 |
| 20260508062306 | 62 | 142 | 1.0 | 3.0 | 0.00 | 0.00 | 0.00 | 77 | 1013.9 |
| 20260508060805 | 63 | 143 | 1.0 | 3.0 | 0.00 | 0.00 | 0.00 | 76 | 1013.8 |
| 20260508053805 | 63 | 142 | 1.0 | 2.0 | 0.00 | 0.00 | 0.00 | 76 | 1013.7 |
| 20260508050933 | 63 | 142 | 1.0 | 2.0 | 0.00 | 0.00 | 0.00 | 74 | 1013.9 |
| 20260508044805 | 64 | 142 | 1.0 | 2.0 | 0.00 | 0.00 | 0.00 | 73 | 1013.9 |
| 20260508035306 | 64 | 142 | 1.0 | 3.0 | 0.00 | 0.00 | 0.00 | 72 | 1013.8 |
| 20260508034804 | 64 | 142 | 1.0 | 2.0 | 0.00 | 0.00 | 0.00 | 71 | 1013.8 |
| 20260508033804 | 64 | 142 | 2.0 | 5.0 | 0.00 | 0.00 | 0.00 | 71 | 1013.8 |
| 20260508033304 | 65 | 142 | 1.0 | 5.0 | 0.00 | 0.00 | 0.00 | 72 | 1013.5 |
| 20260508032306 | 65 | 143 | 2.0 | 5.0 | 0.00 | 0.00 | 0.00 | 70 | 1013.5 |
| 20260508030304 | 65 | 126 | 2.0 | 8.0 | 0.00 | 0.00 | 0.00 | 69 | 1013.4 |
| 20260508025804 | 65 | 153 | 1.0 | 6.0 | 0.00 | 0.00 | 0.00 | 68 | 1013.4 |
| 20260508025306 | 65 | 154 | 2.0 | 5.0 | 0.00 | 0.00 | 0.00 | 67 | 1013.5 |
| 20260508024804 | 66 | 156 | 2.0 | 5.0 | 0.00 | 0.00 | 0.00 | 67 | 1013.4 |
| 20260508020304 | 66 | 157 | 4.0 | 8.0 | 0.00 | 0.00 | 0.00 | 64 | 1012.9 |
| 20260508012808 | 67 | 156 | 7.0 | 10.0 | 0.00 | 0.00 | 0.00 | 64 | 1012.9 |
| 20260508011809 | 67 | 171 | 6.0 | 10.0 | 0.00 | 0.00 | 0.00 | 63 | 1013.0 |
| 20260508011308 | 67 | 163 | 6.0 | 12.0 | 0.00 | 0.00 | 0.00 | 63 | 1013.0 |
| 20260508010308 | 68 | 167 | 6.0 | 8.0 | 0.00 | 0.00 | 0.00 | 64 | 1013.0 |
| 20260508005808 | 68 | 152 | 6.0 | 10.0 | 0.00 | 0.00 | 0.00 | 63 | 1012.8 |
| 20260508005308 | 68 | 148 | 7.0 | 12.0 | 0.00 | 0.00 | 0.00 | 63 | 1012.8 |
| 20260508004308 | 69 | 150 | 5.0 | 9.0 | 0.00 | 0.00 | 0.00 | 63 | 1012.8 |
| 20260508003308 | 69 | 154 | 7.0 | 12.0 | 0.00 | 0.00 | 0.00 | 61 | 1012.8 |
| 20260508002308 | 70 | 139 | 7.0 | 13.0 | 0.00 | 0.00 | 0.00 | 60 | 1012.9 |
| 20260508000808 | 72 | 136 | 3.0 | 9.0 | 0.00 | 0.00 | 0.00 | 52 | 1012.9 |
| 20260507235808 | 72 | 127 | 5.0 | 8.0 | 0.00 | 0.00 | 0.00 | 52 | 1012.9 |
| 20260507235307 | 72 | 127 | 5.0 | 9.0 | 0.00 | 0.00 | 0.00 | 52 | 1012.8 |
| 20260507232807 | 72 | 142 | 4.0 | 8.0 | 0.00 | 0.00 | 0.00 | 52 | 1012.8 |
| 20260507232308 | 72 | 106 | 5.0 | 9.0 | 0.00 | 0.00 | 0.00 | 52 | 1012.8 |
| 20260507230807 | 73 | 116 | 5.0 | 9.0 | 0.00 | 0.00 | 0.00 | 52 | 1012.8 |
| 20260507230308 | 73 | 119 | 5.0 | 9.0 | 0.00 | 0.00 | 0.00 | 52 | 1012.8 |
| 20260507223807 | 74 | 65 | 1.0 | 3.0 | 0.00 | 0.00 | 0.00 | 47 | 1013.1 |
| 20260507222808 | 74 | 94 | 1.0 | 5.0 | 0.00 | 0.00 | 0.00 | 47 | 1013.1 |
| 20260507222308 | 74 | 94 | 2.0 | 5.0 | 0.00 | 0.00 | 0.00 | 47 | 1013.2 |
| 20260507221307 | 74 | 129 | 2.0 | 5.0 | 0.00 | 0.00 | 0.00 | 47 | 1013.5 |